STARLINK-34142, 63957

Orbit data source: Space-Track

STARLINK-34142, 63957 is a payload satellite owned by SpaceX/Seattle (US) in LEO that was launched on Tue, 13 May 2025 UTC via an FALCON 9 launch vehicle from the Air Force Eastern Test Range (AFETR). Payload-class satellites include a variety of spacecraft equipped with specific instruments for various scientific and technological missions. These include communications satellites like Starlink; space stations such as the ISS; scientific satellites like the Hubble; Earth observation satellites from companies like Planet Labs, Umbra, and HawkEye 360; GPS; miniature CubeSats for education and research; and military/defense satellites.

Loading next visibility...
Identifier
63957, 2025-099F
Orbit
LEO
Country
Flag of USUS
Related business
Manufacturer
SpaceX/Seattle
Mission
Operational Commercial Communications
Bus & Motor
STARLINK V2MO, Unknown motor
Mass
575 kg wet, ~530 kg dry
Launch date (UTC)
2025-05-13 (7 months ago)
Launch vehicle
FALCON 9
Launch site
Air Force Eastern Test Range (AFETR)
Object type
Payload
Rocket body
Debris
Shape & HBR
Box + 2 Pan, 17.7 m
Radar Cross Section
36.964 m², Large (>1 m²)

Expand to show TLE details & history
Last TLE update: 15 hours ago

TLE from 15 hours ago
0 STARLINK-34142
1 63957U 25099F   25346.91987599  .00029747  00000-0  10861-2 0  9999
2 63957  42.9992 306.4553 0000589 300.7920  59.2873 15.27581841 34065
Epoch: 2025-12-12T22:04Z
TLE epoch observation values (Epoch: 2025-12-12T22:04:37.285Z)
Latitude
-0.00006°
Longitude
-106.55471°
Altitude
482.613 km
Speed
7.626 km/s
True Right ascension
20h 25m 49s
True Declination
0° 00' 00"
Sunlit
Object was in daylight at epoch
Visualization orbit readout
Latitude
Unknown
Longitude
Unknown
Altitude
Unknown
Speed
Unknown
Apparent Right ascension
Unknown
Apparent Declination
Unknown
Sunlit
N/A
Visualization observer readout
Local Sidereal Time
11:32:40
Azimuth
Unknown
Elevation
Unknown
Doppler factor
Unknown
Orbital elements
Apogee altitude
485.393 km
Perigee altitude
484.585 km
Semi-major axis
6,863.126 km
Eccentricity
0.00006
Inclination
42.9992°
RAAN
306.4553°
Arg. of periapsis
300.792°
True anomaly
59.2931°
Mean anomaly
59.2873°
Eccentric anomaly
59.2902°
Mean motion
3.81733 °/min
Orbital period
94.31 mins
BSTAR
0.0010861
Loading maneuver chart data...
Computing Atmospheric mass density...
Loading historical data...
Loading historical data...
Loading historical data...
Loading historical data...
Loading historical data...
Loading historical data...
Loading historical data...

Documentation

Showing up to 5 results
|